一网星座-0256星 (ONEWEB-0256 )

导读 | 星芒AI

ONEWEB-0256 是 OneWeb 卫星星座计划中的一颗低轨通信卫星,旨在为全球提供高速互联网服务。该卫星于2023年发射,运行在约1200公里的近地轨道,采用先进通信技术,支持宽带接入和远程通信。作为 OneWeb 低轨卫星网络的一部分,它有助于增强全球覆盖,特别是在偏远和农村地区。该卫星系统由多家国际航天企业合作建造,是实现全球数字连接的重要组成部分。

基本信息
目录编号:
48974
目录名称:
ONEWEB-0256
国际标识:
2021-060H
轨道中心:
EARTH
卫星名称:
一网星座-0256星
卫星全名:
一网星座-0256星 (ONEWEB-0256 )
卫星状态:
在轨 (已飞行1628 天)
发射日期:
2021-07-01 UTC
国别 :
英国 (GB)
星等 :
--
轨道信息
数据来源 国际轨道数据 AOE轨道数据
星历时间 2025-12-15T02:39:52+0800
1天前
查看轨道信息
2025-12-10T13:00:00+0800
5天前
查看轨道信息
半长轴 7575.891km 7575.887km
偏心率 0.0001734 0.000155
轨道倾角 87.904° 87.905°
近地点辐角 78.093° 99.401°
升交点赤经 265.512° 266.422°
平近点角 282.040° 215.554°
近地点 1196.442km 1196.577km
远地点 1199.07km 1198.927km
周期 109.373分钟 109.373分钟
每日圈数 13.16595 13.165962
详细信息
平衡模式:
三轴稳定
覆盖范围:
全球
运营商:
一网卫星公司
运营商所在国:
英国
制造商(研发单位):
一网卫星公司
制造商所在国:
英国
使用方式:
暂无
卫星简介
OneWeb卫星网络由648颗重约125公斤的微型卫星组成,运行在1200公里的轨道上。 每颗卫星都能够提供至少每秒8千兆位的吞吐量,以使用其高吞吐量的Ku频段有效载荷为家庭和移动平台提供互联网接入。该卫星仍在工作。
2D轨道图
3D轨道图
轨道高度分析图
轨道倾角分析图
轨道综合分析图
查看轨道综合分析图